Regional Weather Roundup
Issued by NWS

Home | Current Version | Previous Version | Text Only | Print | Product List | Glossary Off
Versions: 1 2 3 4 5 6 7 8 9 10 11 12 13 14 15 16 17 18 19 20 21 22 23 24 25 26 27 28 29 30 31 32 33 34 35 36 37 38 39 40 41 42 43 44 45 46 47 48 49 50

000
ASUS43 KLOT 191108
RWRIL

ILLINOIS REGIONAL WEATHER ROUNDUP
NATIONAL WEATHER SERVICE CHICAGO/ROMEOVILLE IL
500 AM CST MON FEB 19 2018

NOTE: "FAIR" INDICATES FEW OR NO CLOUDS BELOW 12,000 FEET WITH NO
SIGNIFICANT WEATHER AND/OR OBSTRUCTIONS TO VISIBILITY.

* THESE STATIONS ARE NOT UNDER NWS QUALITY CONTROL. THEY ALSO MAY NOT
  REPORT WEATHER SUCH AS PRECIPITATION OR FOG.

ILZ001-002-007-009-015-016-024-191200-
NORTHWEST ILLINOIS

CITY           SKY/WX    TMP DP  RH WIND       PRES   REMARKS
MOLINE         CLOUDY    43  39  86 S9        29.76F
STERLING*      FAIR      34  33  96 CALM      29.82R
SAVANNA*       FAIR      35  33  94 SE6       29.81R WCI  30
$$

ILZ003-004-008-010-011-017-018-191200-
NORTH CENTRAL ILLINOIS

CITY           SKY/WX    TMP DP  RH WIND       PRES   REMARKS
ROCKFORD       FAIR      35  33  92 SE7       29.84S WCI  29
FREEPORT*      FAIR      35  34  95 E3        29.80F
ROCHELLE*      FAIR      33  33  99 SE7       29.84R FOG     WCI  27
DE KALB*       LGT RAIN  35  34  99 S10       29.85R VSB 1/4 WCI  27
PERU*          FAIR      38  36  94 S8        29.85S WCI  32
$$

ILZ005-006-012>014-019>023-191200-
NORTHEAST ILLINOIS

CITY           SKY/WX    TMP DP  RH WIND       PRES   REMARKS
CHICAGO-OHARE  CLOUDY    39  36  89 S5        29.86R
CHICAGO-MIDWAY CLOUDY    40  39  97 S7        29.87R
AURORA         FOG       35  35 100 SE5       29.85S VSB 1/4 WCI  31
LANSING*       CLOUDY    37  37 100 S3        29.89R FOG
JOLIET*        CLOUDY    41  41 100 S5        29.88R FOG
WAUKEGAN       CLOUDY    40  37  89 SW13      29.84S
DUPAGE AIRPORT FOG       36  36 100 S7        29.85S VSB 1/2 WCI  30
KANKAKEE*      CLOUDY    40  40  99 S9        29.90S
WHEELING       CLOUDY    40  38  93 S7        29.88R
MORRIS*        FOG       37  36  99 S7        29.87R VSB 1   WCI  31
ROMEOVILLE*    FOG       36  36 100 S8        29.88R VSB 1/2 WCI  30
NORTHERLY ISL    N/A     39  37  92 S8          N/A  WCI  33
$$

LMZ740>746-191200-
SOUTHERN LAKE MICHIGAN

STATION/POSITION SKY/WX   TEMP    WIND        PRES    VSBY  WAVE
                          AIR SEA DIR/SP/G                  HT/PER
                          (F)     (DEG/KT/KT) (MB)    (MI)  (FT/S)
HARRISON CRIB              38     160/  8/ 10   N/A
BURNHAM HARBOR             40     210/  7/ 10   N/A
CALUMET HARBOR             39     170/  7/  9 1011.4R
BURNS HARBOR               40     180/ 13/ 19 1012.9R
MICHIGAN CITY              39     180/ 11/ 13   N/A
$$

ILZ025>027-034>036-040-047-049-050-058-095>099-191200-
WEST-CENTRAL ILLINOIS

CITY           SKY/WX    TMP DP  RH WIND       PRES   REMARKS
QUINCY         CLOUDY    47  46  97 SE10      29.77S FOG
GALESBURG*     RAIN      42  42 100 SE7       29.81F
MACOMB*        LGT RAIN  43  42  98 SE10      29.82S
JACKSONVILLE*  CLOUDY    48  47  97 SE7       29.82S FOG
PITTSFIELD*    CLOUDY    50  49  97 SE8       29.80S
$$

ILZ028>032-037-038-041>044-048-051>054-059>061-191200-
CENTRAL ILLINOIS

CITY           SKY/WX    TMP DP  RH WIND       PRES   REMARKS
PONTIAC        CLOUDY    42  42  98 S9        29.88F
BLOOMINGTON    LGT RAIN  45  44  97 S13       29.88R FOG
DECATUR        LGT RAIN  46  46 100 S10       29.90R FOG
PEORIA         LGT RAIN  45  43  93 S8        29.85S
LACON*         CLOUDY    42  40  93 SE6       29.84S
LINCOLN*       CLOUDY    47  47 100 S8        29.86F FOG
SPRINGFIELD    LGT RAIN  50  49  96 SE13      29.86S FOG
TAYLORVILLE    CLOUDY    51  50  98 S12G18    29.88S
$$

ILZ033-039-045-046-055>057-062-063-191200-
EAST-CENTRAL ILLINOIS

CITY           SKY/WX    TMP DP  RH WIND       PRES   REMARKS
CHAMPAIGN      LGT RAIN  45  45 100 S18       29.91R FOG
DANVILLE*      CLOUDY    47  46  96 S15G23    29.91R
RANTOUL*       LGT RAIN  47  46  97 S10       29.91R
MATTOON        CLOUDY    49  47  93 S10       29.92R
PARIS*         CLOUDY    48  47  95 S7        29.97R
$$

ILZ079-100>102-191200-
SOUTHWEST ILLINOIS

CITY           SKY/WX    TMP DP  RH WIND       PRES   REMARKS
ALTON          CLOUDY    55  53  95 S15       29.86S
BELLEVILLE     LGT RAIN  55  54  94 SW14      29.89S
CAHOKIA*       CLOUDY    57  53  86 S14G23    29.87S
SPARTA*        LGT RAIN  53  53 100 S16G23    29.95R
$$

ILZ064>066-069>071-074>076-080>082-084>086-088>090-092>094-191200-
SOUTH-CENTRAL ILLINOIS

CITY           SKY/WX    TMP DP  RH WIND       PRES   REMARKS
CARBONDALE     CLOUDY    59  57  93 S22G38    29.97S
CAIRO*         CLOUDY    55  54  97 S8        30.04S
EFFINGHAM*     CLOUDY    53  53 100 S9        29.95S
MARION         CLOUDY    56  55  99 S23G29    29.99F
MT. VERNON     CLOUDY    56  55  97 S22G29    29.95S
CENTRALIA*     CLOUDY    57  56  97 S21       29.92F
SALEM*         LGT RAIN  57  55  91 S15G24    29.93S
METROPOLIS*    CLOUDY    58  55  90 S9        30.05S
$$

ILZ067-068-072-073-078-083-087-091-191200-
SOUTHEAST ILLINOIS

CITY           SKY/WX    TMP DP  RH WIND       PRES   REMARKS
LAWRENCEVILLE  CLOUDY    54  51  90 S17       29.98S
FLORA*         CLOUDY    57  55  92 S21G28    29.96S
FAIRFIELD*     CLOUDY    57  56  97 S10G17    29.97R
HARRISBURG*    CLOUDY    58  56  94 S20G35    30.00S
ROBINSON*      CLOUDY    52  50  94 S13G23    29.97R
CARMI*         CLOUDY    56  55  94 S21       30.00S
$$

ABBREVIATIONS USED IN REMARKS
   TC - TEMPERATURE IN CELSIUS
  WCI - WIND CHILL INDEX
   HX - HEAT INDEX
  VSB - VISIBILITY
$$




USA.gov is the U.S. government's official web portal to all federal, state and local government web resources and services.